Погода в Амбоне

Индонезия     3°40′00″S   128°09′19″E
темп.,
°C
ветер,
м/с
пор.,
м/с
влажн.,
%
обл.,
%
осадки,
мм/ч
давл.,
гПа
погр.,
м
5 декабря, вс
вс500:00+26зюз6786100 6.3 1009574
03:00+26зюз568697 10.0 1007362
06:00+26зюз4588100 7.6 1008263
09:00+28зсз3479100 14.1 1010425
12:00+29з4469100 1.2 1008812
15:00+30з456781 1.3 1005834
18:00+28з4576100 1.9 1006488
21:00+27з348198 4.8 1009276
6 декабря, пн
пн600:00+27зсз3481100 1.4 1008441
03:00+26сз2386100 1.7 1006305
06:00+26з2285100 0.3 1007281
09:00+26зюз3487100 2.6 1009325
12:00+27зюз7885100 7.6 1008734
15:00+25зюз101389100 15.8 1007866
18:00+26юз71081100 2.0 1007708
21:00+27з4682100 2.1 1008518
7 декабря, вт
вт700:00+26сз238384 0.0 1006324
03:00+26зсз238352 0.0 1005336
06:00+26зсз238396 0.1 1007348
09:00+28з237395 0.3 1008615
12:00+28зюз7875100 1.1 1007922
15:00+29юз567175 1.9 1006912
18:00+27юз468157 2.1 1007485
21:00+27зюз3481100 5.3 1009249
8 декабря, ср
ср800:00+27з3380100 2.4 1009212
03:00+27з3480100 4.9 1007324
06:00+27зсз338194 0.0 1008393
09:00+28зсз227670 0.9 1010407
12:00+30сз126718 1.0 1008712
15:00+29зсз2371100 2.2 1006433
18:00+28сз2277100 0.3 1007404
21:00+27сз227792 0.4 1010240
9 декабря, чт
чт900:00+27зсз2280100 1.1 1009148
03:00+27зсз2279100 3.3 1007235
06:00+27з2277100 0.3 1009266
09:00+27зсз2375100 1.3 1010433
12:00+27юз1177100 0.3 1008361
15:00+27ююз227889 0.5 1007280
18:00+27юз227690 0.0 1007213
21:00+27з117695 0.0 1009181